sat.trackr.live / text

‹ back to catalog

FOSSASA-2E23

NORAD 66788 · 2025-276ED

PAYLOAD ACTIVE UNKNOWN

§ Identity

Operator
Country
SPN
Launch date
2025-11-28
Launch site
AFWTR
Launch vehicle
Mass (kg)
RCS (m²)

External: N2YO · Heavens-Above · Gunter

§ Orbital elements

Epoch: 2026-05-25T04:44:30.240672Z

Period
94.66 min
Inclination
97.4246°
Eccentricity
0.0005640
Mean motion
15.21161019 rev/d
Perigee alt
498.5 km
Apogee alt
506.2 km
Semi-major
6,880.5 km
B*
3.9009e-4
RAAN
219.2284°
Arg perigee
187.8580°
Mean anomaly
172.2568°
Rev number
2,693

§ Raw data

FOSSASA-2E231 66788U 25276ED  26145.19757223  .00008628  00000+0  39009-3 0  99982 66788  97.4246 219.2284 0005640 187.8580 172.2568 15.21161019 26937

JSON: /api/v1/satellites/66788 · /tle

For live sub-satellite position, see the globe view (requires WebGL).

§ Visibility from observer

Set your observer location to see the next 7 days of passes ≥ 10°. The values pass through the URL so the page stays shareable.

No JS? Fill the form by hand. The geolocation button needs JavaScript.